Date String (YYYY-MM-DD hh:mm:ss) UTC,Instrument flags,absolute air pressure of the measurement (hPa),sample flow rate (lpm),inlet stack bypass flow (lpm),air temperature of the measurement (°C),ambient temperature measured by the external sensor (°C),aerosol sample conditioner tube jacket temperature (°C),OPC LED temperature (°C),internal box temperature (°C),relative humidity of the measurement (%),span deviation,mass concentration of particles derived from Lorenz-Mie calculation of OPC scattering (μg/m³),mass concentration of particles derived from Lorenz-Mie calculation of OPC scattering (μg/m³),mass concentration of particles derived from Lorenz-Mie calculation of OPC scattering (μg/m³)
DateTimeUTC,F1_M11,P_M11,Q1_M11,Q2_M11,T1_M11,T2_M11,T3_M11,T4_M11,T5_M11,U1_M11,ZSPAN_M11,X2_M11,X0_M11,X1_M11
2024-01-04 05:00:00,SystemResetWarning,0826.6,5.00,000.00,022.6,021.7,000.0,031.0,024.0,10.9,0000.0,0005.59,0011.40,0004.87
2024-01-04 05:01:00,SystemResetWarning,0826.6,5.00,000.00,022.6,021.7,000.0,031.0,024.0,10.8,0000.0,0005.61,0011.45,0004.89
2024-01-04 05:02:00,SystemResetWarning,0826.6,5.00,000.00,022.6,021.6,000.0,031.0,024.0,10.9,0000.0,0005.61,0011.45,0004.89
2024-01-04 05:03:00,SystemResetWarning,0826.6,5.00,000.00,022.6,021.6,000.0,031.0,024.0,10.9,0000.8,0005.59,0011.29,0004.88
2024-01-04 05:04:00,SystemResetWarning,0826.6,5.00,000.00,022.6,021.6,000.0,031.0,024.0,10.8,0000.5,0005.59,0011.31,0004.88
2024-01-04 05:05:00,SystemResetWarning,0826.6,5.00,000.00,022.6,021.6,000.0,031.0,024.0,10.8,0000.0,0005.56,0011.42,0004.87
2024-01-04 05:06:00,SystemResetWarning,0826.6,5.00,000.00,022.6,021.6,000.0,031.0,024.0,10.8,0000.0,0005.53,0012.58,0004.85
2024-01-04 05:07:00,SystemResetWarning,0826.6,5.00,000.00,022.6,021.6,000.0,031.0,023.9,10.8,0000.0,0005.50,0012.46,0004.85
2024-01-04 05:08:00,SystemResetWarning,0826.5,5.00,000.00,022.6,021.6,000.0,031.0,024.0,10.8,0003.3,0005.48,0012.44,0004.84
2024-01-04 05:09:00,SystemResetWarning,0826.6,5.00,000.00,022.6,021.6,000.0,031.0,024.0,10.9,0004.4,0005.45,0012.49,0004.83
2024-01-04 05:10:00,SystemResetWarning,0826.6,5.00,000.00,022.6,021.5,000.0,030.9,023.9,10.9,0004.2,0005.40,0011.55,0004.80
2024-01-04 05:11:00,SystemResetWarning,0826.6,5.00,000.00,022.6,021.5,000.0,030.9,023.9,10.9,0004.1,0005.39,0011.43,0004.78
2024-01-04 05:12:00,SystemResetWarning,0826.6,4.99,000.00,022.6,021.5,000.0,030.9,023.9,10.9,0004.0,0005.37,0011.36,0004.78
2024-01-04 05:13:00,SystemResetWarning,0826.6,4.99,000.00,022.6,021.5,000.0,030.9,023.9,10.9,0003.5,0005.35,0011.34,0004.76
2024-01-04 05:14:00,SystemResetWarning,0826.6,5.00,000.00,022.6,021.5,000.0,030.9,023.9,10.9,0004.2,0005.31,0011.37,0004.74
2024-01-04 05:15:00,SystemResetWarning,0826.6,5.00,000.00,022.6,021.5,000.0,030.9,023.9,10.9,0004.7,0005.28,0011.30,0004.74
2024-01-04 05:16:00,SystemResetWarning,0826.6,5.01,000.00,022.6,021.5,000.0,030.9,023.9,10.9,0004.6,0005.31,0011.08,0004.75
2024-01-04 05:17:00,SystemResetWarning,0826.7,5.00,000.00,022.6,021.5,000.0,030.9,023.9,10.9,0004.0,0005.33,0010.75,0004.76
2024-01-04 05:18:00,SystemResetWarning,0826.7,4.99,000.00,022.5,021.5,000.0,030.9,023.9,10.9,0004.1,0005.37,0010.40,0004.76
2024-01-04 05:19:00,SystemResetWarning,0826.8,4.99,000.00,022.5,021.5,000.0,030.9,023.9,10.9,0004.3,0005.36,0010.70,0004.75
2024-01-04 05:20:00,SystemResetWarning,0826.7,4.99,000.00,022.5,021.5,000.0,030.9,023.9,10.9,0003.0,0005.35,0010.30,0004.76
2024-01-04 05:21:00,SystemResetWarning,0826.7,5.00,000.00,022.5,021.5,000.0,030.9,023.9,10.9,0004.1,0005.38,0010.48,0004.77
2024-01-04 05:22:00,SystemResetWarning,0826.6,5.00,000.00,022.5,021.5,000.0,030.9,023.9,10.9,0000.8,0005.41,0010.51,0004.79
2024-01-04 05:23:00,SystemResetWarning,0826.6,5.01,000.00,022.5,021.5,000.0,030.9,023.9,10.9,0000.0,0005.47,0010.68,0004.80
2024-01-04 05:24:00,SystemResetWarning,0826.6,5.00,000.00,022.5,021.5,000.0,030.9,023.9,10.9,0000.0,0005.53,0011.13,0004.81
2024-01-04 05:25:00,SystemResetWarning,0826.6,5.00,000.00,022.5,021.6,000.0,030.9,023.9,10.8,0000.0,0005.56,0011.13,0004.84
2024-01-04 05:26:00,SystemResetWarning,0826.6,4.99,000.00,022.5,021.6,000.0,030.9,023.9,10.8,0000.0,0005.59,0011.31,0004.87
2024-01-04 05:27:00,SystemResetWarning,0826.6,5.00,000.00,022.5,021.6,000.0,030.9,023.9,10.8,0000.0,0005.58,0012.47,0004.87
2024-01-04 05:28:00,SystemResetWarning,0826.6,4.99,000.00,022.5,021.6,000.0,030.9,023.9,10.9,0000.0,0005.58,0012.21,0004.87
2024-01-04 05:29:00,SystemResetWarning,0826.6,5.00,000.00,022.5,021.6,000.0,030.9,023.8,10.9,0000.0,0005.53,0011.52,0004.87
2024-01-04 05:30:00,SystemResetWarning,0826.6,5.00,000.00,022.5,021.6,000.0,030.8,023.8,10.9,0000.0,0005.54,0011.03,0004.88
2024-01-04 05:31:00,SystemResetWarning,0826.5,5.00,000.00,022.5,021.6,000.0,030.8,023.8,10.9,0000.0,0005.59,0011.03,0004.90
2024-01-04 05:32:00,SystemResetWarning,0826.4,5.00,000.00,022.4,021.6,000.0,030.8,023.8,10.9,0001.6,0005.59,0010.95,0004.89
2024-01-04 05:33:00,SystemResetWarning,0826.4,5.00,000.00,022.4,021.6,000.0,030.8,023.8,10.9,0002.5,0005.60,0011.39,0004.89
2024-01-04 05:34:00,SystemResetWarning,0826.4,5.00,000.00,022.4,021.5,000.0,030.8,023.8,10.9,0002.4,0005.60,0011.94,0004.92
2024-01-04 05:35:00,SystemResetWarning,0826.4,5.01,000.00,022.4,021.6,000.0,030.8,023.8,10.9,0001.5,0005.56,0011.78,0004.92
2024-01-04 05:36:00,SystemResetWarning,0826.4,5.00,000.00,022.4,021.6,000.0,030.8,023.8,10.9,0001.5,0005.52,0011.61,0004.90
2024-01-04 05:37:00,SystemResetWarning,0826.4,5.00,000.00,022.4,021.6,000.0,030.8,023.8,10.9,0001.2,0005.49,0011.63,0004.85
2024-01-04 05:38:00,SystemResetWarning,0826.3,4.99,000.00,022.4,021.6,000.0,030.8,023.8,10.9,0001.8,0005.48,0010.88,0004.82
2024-01-04 05:39:00,SystemResetWarning,0826.3,4.99,000.00,022.4,021.5,000.0,030.8,023.7,10.9,0002.4,0005.45,0010.62,0004.79
2024-01-04 05:40:00,SystemResetWarning,0826.3,5.00,000.00,022.4,021.5,000.0,030.8,023.8,10.9,0002.1,0005.43,0010.99,0004.76
2024-01-04 05:41:00,SystemResetWarning,0826.2,5.00,000.00,022.4,021.5,000.0,030.8,023.8,10.9,0000.0,0005.45,0011.30,0004.74
2024-01-04 05:42:00,SystemResetWarning,0826.2,5.00,000.00,022.4,021.5,000.0,030.8,023.8,11.0,0000.0,0005.45,0011.57,0004.75
2024-01-04 05:43:00,SystemResetWarning,0826.2,5.00,000.00,022.4,021.5,000.0,030.8,023.7,11.0,0000.0,0005.43,0011.61,0004.76
2024-01-04 05:44:00,SystemResetWarning,0826.2,5.00,000.00,022.4,021.5,000.0,030.8,023.7,11.0,0002.4,0005.40,0011.44,0004.74
2024-01-04 05:45:00,SystemResetWarning,0826.2,5.00,000.00,022.4,021.6,000.0,030.7,023.7,11.0,0003.0,0005.35,0010.82,0004.70
2024-01-04 05:46:00,SystemResetWarning,0826.2,5.01,000.00,022.3,021.5,000.0,030.7,023.7,11.0,0003.6,0005.32,0010.93,0004.66
2024-01-04 05:47:00,SystemResetWarning,0826.2,5.00,000.00,022.3,021.5,000.0,030.7,023.7,11.1,0003.7,0005.31,0011.79,0004.64
2024-01-04 05:48:00,SystemResetWarning,0826.3,5.00,000.00,022.3,021.5,000.0,030.7,023.6,11.1,0003.3,0005.27,0011.66,0004.63
2024-01-04 05:49:00,SystemResetWarning,0826.3,5.01,000.00,022.3,021.5,000.0,030.7,023.6,11.3,0003.7,0005.21,0011.26,0004.61
2024-01-04 05:50:00,SystemResetWarning,0826.4,5.00,000.00,022.3,021.5,000.0,030.7,023.5,11.3,0004.4,0005.15,0010.98,0004.59
2024-01-04 05:51:00,SystemResetWarning,0826.4,5.00,000.00,022.3,021.5,000.0,030.7,023.5,11.4,0004.3,0005.12,0010.68,0004.56
2024-01-04 05:52:00,SystemResetWarning,0826.4,5.00,000.00,022.3,021.5,000.0,030.7,023.5,11.3,0004.2,0005.05,0010.30,0004.52
2024-01-04 05:53:00,SystemResetWarning,0826.4,5.00,000.00,022.3,021.4,000.0,030.7,023.5,11.3,0004.8,0004.97,0009.93,0004.48
2024-01-04 05:54:00,SystemResetWarning,0826.4,5.00,000.00,022.3,021.4,000.0,030.7,023.4,11.3,0003.2,0004.92,0009.90,0004.44
2024-01-04 05:55:00,SystemResetWarning,0826.3,5.00,000.00,022.2,021.4,000.0,030.7,023.5,11.3,0005.1,0004.92,0009.42,0004.43
2024-01-04 05:56:00,SystemResetWarning,0826.3,5.00,000.00,022.2,021.4,000.0,030.6,023.5,11.2,0001.4,0004.92,0009.70,0004.42
2024-01-04 05:57:00,SystemResetWarning,0826.4,5.00,000.00,022.2,021.3,000.0,030.6,023.4,11.2,0000.0,0004.91,0010.29,0004.42
2024-01-04 05:58:00,SystemResetWarning,0826.4,5.00,000.00,022.2,021.3,000.0,030.6,023.4,11.2,0000.0,0004.95,0010.31,0004.41
2024-01-04 05:59:00,SystemResetWarning,0826.4,5.00,000.00,022.2,021.3,000.0,030.6,023.4,11.2,0000.0,0004.97,0010.11,0004.40
